Home   Weather   Meyrin   Past weeks

Flag for Switzerland Past Weather in Meyrin, Geneva, Switzerland — Yesterday and Last 2 Weeks

Now
27 °F

Passing clouds.


Feels Like: 14 °F
Forecast: 14 / 25 °F
Wind: 16 mph from Northeast

Location: Geneva Cointrin Airport

Current Time: Jan 18, 2017 at 12:44:48 am

Latest Report: Jan 17, 2017 at 11:50 pm


Visibility: N/A

Pressure: 30.24 "Hg

Humidity: 69%

Dew Point: 18 °F

Location of MeyrinLocation

Past Weather in Meyrin — Graph

°F

Meyrin Temperature Yesterday

Maximum temperature yesterday: 28 °F (at 7:50 am)
Minimum temperature yesterday: 27 °F (at 12:20 am)
Average temperature yesterday: 27 °F

High & Low Weather Summary for the Past Weeks

 TemperatureHumidityPressure
High45 °F (Jan 12, 1:50 pm)100% (Jan 2, 11:50 pm)30.54 "Hg (Jan 2, 11:50 pm)
Low18 °F (Jan 7, 8:20 am)42% (Jan 5, 12:50 pm)29.65 "Hg (Jan 12, 10:50 pm)
Average31 °F79%30.18 "Hg
* Reported Jan 2 11:20 pm — Jan 17 11:20 pm, Meyrin, Weather by CustomWeather, © 2017

Note: Actual official high and low records may vary slightly from our data, if they occured in-between our weather recording intervals... More about our weather records

Advertising

Meyrin Weather History for the Previous 24 Hours

Scroll right to see more
 ConditionsComfort  
Time TempWeatherWind HumidityBarometerVisibility
11:20 pm
Tue, Jan 17
27 °FPassing clouds.16 mph69%30.24 "HgN/A
10:50 pm27 °FPassing clouds.16 mph74%30.24 "HgN/A
10:20 pm27 °FPassing clouds.16 mph69%30.21 "HgN/A
9:50 pm27 °FPassing clouds.17 mph69%30.21 "HgN/A
9:20 pm27 °FPassing clouds.17 mph69%30.21 "HgN/A
8:50 pm27 °FPassing clouds.21 mph69%30.21 "HgN/A
8:20 pm27 °FPassing clouds.22 mph69%30.21 "HgN/A
7:50 pm27 °FPassing clouds.23 mph69%30.21 "HgN/A
7:20 pm27 °FPassing clouds.25 mph69%30.21 "HgN/A
6:50 pm27 °FPassing clouds.24 mph69%30.18 "HgN/A
6:20 pm27 °FPassing clouds.22 mph69%30.18 "HgN/A
5:50 pm27 °FPassing clouds.25 mph69%30.18 "HgN/A
5:20 pm27 °FPassing clouds.25 mph69%30.18 "HgN/A
4:50 pm28 °FPartly sunny.26 mph64%30.15 "HgN/A
4:20 pm28 °FPartly sunny.23 mph64%30.15 "HgN/A
3:50 pm28 °FPartly sunny.25 mph64%30.15 "HgN/A
3:20 pm28 °FPartly sunny.25 mph69%30.15 "HgN/A
2:50 pm28 °FPartly sunny.24 mph64%30.15 "HgN/A
2:20 pm28 °FBroken clouds.28 mph64%30.15 "HgN/A
1:50 pm28 °FBroken clouds.26 mph69%30.15 "HgN/A
1:20 pm28 °FPartly sunny.30 mph64%30.15 "HgN/A
12:50 pm28 °FPartly sunny.31 mph64%30.15 "HgN/A
12:20 pm28 °FPartly sunny.33 mph64%30.15 "HgN/A
11:50 am28 °FPartly sunny.30 mph64%30.15 "HgN/A
11:20 am28 °FPartly sunny.29 mph69%30.15 "HgN/A
10:50 am28 °FPartly sunny.26 mph69%30.15 "HgN/A
10:20 am28 °FPartly sunny.26 mph69%30.15 "HgN/A
9:50 am28 °FPartly sunny.25 mph69%30.15 "HgN/A
9:20 am28 °FPartly sunny.30 mph69%30.15 "HgN/A
8:50 am28 °FPartly sunny.31 mph69%30.12 "HgN/A
8:20 am28 °FPartly sunny.29 mph69%30.12 "HgN/A
7:50 am28 °FPassing clouds.26 mph69%30.12 "HgN/A
7:20 am27 °FPassing clouds.26 mph74%30.12 "HgN/A
6:50 am27 °FPassing clouds.29 mph74%30.12 "HgN/A
6:20 am27 °FPassing clouds.29 mph69%30.12 "HgN/A
5:50 am27 °FPassing clouds.24 mph69%30.12 "HgN/A
5:20 am27 °FOvercast.25 mph69%30.12 "HgN/A
4:50 am27 °FPassing clouds.22 mph69%30.12 "HgN/A
4:20 am27 °FOvercast.25 mph69%30.09 "HgN/A
3:50 am27 °FPassing clouds.25 mph69%30.12 "HgN/A
3:20 am27 °FPassing clouds.28 mph64%30.12 "HgN/A
2:50 am27 °FPassing clouds.21 mph64%30.12 "HgN/A
2:20 am27 °FPassing clouds.22 mph69%30.12 "HgN/A
1:50 am27 °FPassing clouds.22 mph64%30.12 "HgN/A
1:20 am27 °FPassing clouds.20 mph64%30.12 "HgN/A
12:50 am27 °FPassing clouds.20 mph69%30.12 "HgN/A
12:20 am27 °FPassing clouds.22 mph64%30.12 "HgN/A
Weather by CustomWeather, © 2017

See weather overviewHow to use our weather pages